Regional Weather Roundup
Issued by NWS

Home | Current Version | Previous Version | Graphics & Text | Print | Product List | Glossary On
Versions: 1 2 3 4 5 6 7 8 9 10 11 12 13 14 15 16 17 18 19 20 21 22 23 24 25 26 27 28 29 30 31 32 33 34 35 36 37 38 39 40 41 42 43 44 45 46 47 48 49 50
000
ASUS43 KMPX 110101
RWRMN
WEATHER ROUNDUP FOR MINNESOTA
NATIONAL WEATHER SERVICE TWIN CITIES/CHANHASSEN MN
700 PM CST SAT DEC 10 2016


NOTE: "FAIR" INDICATES FEW OR NO CLOUDS BELOW 12,000 FEET WITH NO
SIGNIFICANT WEATHER AND/OR OBSTRUCTIONS TO VISIBILITY. N/A MEANS
CURRENT SKY AND/OR WEATHER CONDITIONS ARE NOT AVAILABLE.

MNZ060>063-068>070-110200-
   Twin Cities Metro

CITY           SKY/WX    TMP DP  RH WIND       PRES   REMARKS
TWIN CITIES    LGT SNOW  12   7  80 SE8       30.24F WCI   0
ST PAUL        LGT SNOW  12   9  87 SE10      30.26F FOG     WCI  -1
CRYSTAL        LGT SNOW  12   6  77 SE6       30.23F WCI   3
BLAINE         LGT SNOW  12   9  85 E9        30.23F WCI   0
LAKEVILLE      LGT SNOW   9   7  92 E10       30.22F WCI  -6
EDEN PRAIRIE   LGT SNOW  12   7  80 E8        30.21F WCI   0
SOUTH ST PAUL  LGT SNOW  12   8  83 SE6       30.25F WCI   3
LAKE ELMO      LGT SNOW  14  10  85 E6        30.25F WCI   5
$$
MNZ001>005-007-008-013>017-022>024-027-028-110200-
   Northwest Minnesota

CITY           SKY/WX    TMP DP  RH WIND       PRES   REMARKS
BEMIDJI        CLOUDY    -1  -6  79 SE6       30.20F WCI -13
HALLOCK        CLOUDY    -9 -15  77 CALM      30.29S
ROSEAU         CLOUDY   -13 -18  77 NE3       30.27F
WARROAD        CLOUDY    -8 -11  84 CALM      30.27F
THIEF RVR FALL CLOUDY    -6 -10  83 NE6       30.25F WCI -19
CROOKSTON      CLOUDY    -2  -8  78 E5        30.27F WCI -12
FOSSTON        CLOUDY    -6  -9  84 E3        30.21F
DETROIT LAKES  CLOUDY     3  -4  72 SE6       30.17F WCI  -8
MOORHEAD       CLOUDY     1  -6  71 NE7       30.22F WCI -11
PARK RAPIDS    CLOUDY     2  -5  72 E5        30.18F WCI  -8
$$
MNZ006-009>011-018-025>026-110200-
   North Central Minnesota

CITY           SKY/WX    TMP DP  RH WIND       PRES   REMARKS
BAUDETTE       CLOUDY    -3  -8  79 NE5       30.25F WCI -13
INTL FALLS     CLOUDY   -12 -18  74 CALM      30.26F
WASKISH        CLOUDY    -2  -6  84 CALM      30.24F
BIG FORK       CLOUDY    -9 -15  77 CALM      30.23F
LONGVILLE      MOCLDY     0  -6  78 CALM      30.22S
GRAND RAPIDS   CLOUDY    -2  -6  83 CALM      30.24F
CRANE LAKE     CLEAR     -8  -9  92 CALM      30.30S
ORR            CLOUDY    -9 -15  77 CALM      30.22F
COOK           CLOUDY    -8 -11  84 CALM      30.25S
$$
MNZ012-019>021-037-110200-
   Northeast Minnesota

CITY           SKY/WX    TMP DP  RH WIND       PRES   REMARKS
DULUTH         CLOUDY     1  -4  79 N5        30.23F WCI  -9
ELY            CLEAR     -9 -13  84 CALM      30.24F
HIBBING        CLOUDY   -11 -15  82 CALM      30.24F
EVELETH        CLOUDY    -7 -13  77 CALM      30.25F
DULUTH HARBOR  MOCLDY    10   5  79 CALM      30.31F
TWO HARBORS    CLOUDY     1  -6  71 NW5       30.25F WCI  -8
SILVER BAY     CLOUDY     0  -4  85 CALM      30.25F
GRAND MARAIS     N/A      5  -3  69 N9        30.33F WCI  -9
G MARAIS ARPRT CLEAR     -8 -15  71 CALM      30.21S
$$
MNZ029>031-032-039>041-046>048-054>057-064-110200-
   West Central Minnesota

CITY           SKY/WX    TMP DP  RH WIND       PRES   REMARKS
FERGUS FALLS   CLOUDY     5  -2  72 E8        30.24S WCI  -8
WHEATON        LGT SNOW   9   5  85 E8        30.20R WCI  -4
MORRIS         LGT SNOW   9   5  85 E12       30.14F WCI  -6
ALEXANDRIA     LGT SNOW   7   2  80 E12       30.16F WCI  -8
ELBOW LAKE     LGT SNOW   6   2  85 SE9       30.17F WCI  -8
WADENA         FLURRIES   1  -2  85 E7        30.17F WCI -11
GLENWOOD       LGT SNOW   7   3  85 E12       30.15F WCI  -9
APPLETON       LGT SNOW  10   7  85 E10       30.16F WCI  -3
BENSON         LGT SNOW   9   5  85 SE9       30.15F WCI  -5
ORTONVILLE     LGT SNOW   7   3  85 CALM      30.14F
MADISON        LGT SNOW  12   9  85 E8        30.15F WCI   1
WILLMAR        LGT SNOW  10   9  92 E12       30.16F WCI  -4
$$
MNZ033>034-036-042>043-049>051-058-059-110200-
   Central Minnesota

CITY           SKY/WX    TMP DP  RH WIND       PRES   REMARKS
ST CLOUD       LGT SNOW   9   5  84 E7        30.22F FOG     WCI  -2
PAYNESVILLE    LGT SNOW  10   6  87 E8        30.18F WCI  -3
AITKIN         PTCLDY     7  -2  66 NE6       30.22S WCI  -3
PINE RIVER     CLOUDY     3   0  85 E3        30.24S
BRAINERD       CLOUDY     6  -2  69 NE6       30.21F WCI  -4
LONG PRAIRIE   LGT SNOW   7   1  78 NE8       30.19F WCI  -6
LITTLE FALLS   LGT SNOW  10   3  72 E3        30.21F
LITCHFIELD     LGT SNOW  10   7  85 E13       30.20R WCI  -5
BUFFALO        LGT SNOW  11   8  85 E6        30.22F WCI   2
MAPLE LAKE     LGT SNOW  12  10  89 E8        30.22F WCI   1
HUTCHINSON     LGT SNOW  11   8  87 E10G16    30.19F WCI  -2
$$
MNZ037-044-045-052-053-110200-
   East Central Minnesota

CITY           SKY/WX    TMP DP  RH WIND       PRES   REMARKS
PRINCETON      LGT SNOW  10   5  79 E3        30.22F
MORA           CLOUDY    12   5  73 E3        30.25F
CAMBRIDGE      LGT SNOW  12   3  67 E6        30.22F WCI   3
RUSH CITY      CLOUDY    10   3  72 CALM      30.25F
MOOSE LAKE     CLOUDY     9   1  72 NE5       30.23F WCI   0
HINCKLEY       CLOUDY    12   5  73 CALM      30.25F
CLOQUET        MOCLDY     1  -2  85 CALM      30.24S
MCGREGOR       CLOUDY     5   0  78 NE3       30.24F
$$
MNZ071>073-080-081-089-090-097-098-110200-
   Southwest Minnesota

CITY           SKY/WX    TMP DP  RH WIND       PRES   REMARKS
MONTEVIDEO     LGT SNOW  10   7  85 SE10G16   30.16F WCI  -3
GRANITE FALLS  LGT SNOW  12   9  87 E13       30.16F WCI  -3
CANBY          LGT SNOW  10   7  89 CALM      30.14F
MARSHALL       LGT SNOW  10   7  87 E9        30.13F FOG     WCI  -3
REDWOOD FALLS  LGT SNOW  12   7  80 E10       30.16F WCI  -1
OLIVIA         LGT SNOW  12   9  85 E12G18    30.15F WCI  -2
PIPESTONE      LGT SNOW  12   9  85 SE14      30.02F WCI  -3
WINDOM         LGT SNOW  12  10  92 MISG      30.09F
WORTHINGTON    LGT SNOW  14  11  87 E15       30.04F FOG     WCI  -1
JACKSON        LGT SNOW  14  10  85 E14       30.09F WCI  -1
TRACY          LGT SNOW  11   8  89 E9        30.11S WCI  -2
SLAYTON        LGT SNOW  10   8  90 E9        30.07F WCI  -3
$$
MNZ065>067-074>077-082>085-091>093-110200-
   South Central Minnesota

CITY           SKY/WX    TMP DP  RH WIND       PRES   REMARKS
MANKATO        LGT SNOW  12   8  84 E15       30.17F FOG     WCI  -4
NEW ULM        LGT SNOW  10   9  92 E12       30.16F WCI  -4
ST JAMES       LGT SNOW  12  10  92 E13       30.14F WCI  -3
FAIRMONT       LGT SNOW  15  12  88 E15       30.12F FOG     WCI   0
GLENCOE        LGT SNOW  12  10  92 E10       30.19F WCI  -1
OWATONNA       LGT SNOW  12   9  85 E13       30.18F WCI  -3
WASECA         LGT SNOW  12   9  85 E14       30.18F WCI  -3
ALBERT LEA     LGT SNOW  18  16  93 E12       30.16F WCI   5
$$
MNZ078>079-086>088-094>096-110200-
   Southeast Minnesota

CITY           SKY/WX    TMP DP  RH WIND       PRES   REMARKS
ROCHESTER      LGT SNOW  12   9  87 E10       30.20F FOG     WCI  -1
RED WING       LGT SNOW  12   9  85 E7        30.25F WCI   2
STANTON        LGT SNOW  13   9  83 E7        30.21F WCI   3
DODGE CENTER   LGT SNOW  10   9  92 E10       30.18F WCI  -3
WINONA         LGT SNOW  18  14  86 SE6       30.29F WCI   9
AUSTIN         LGT SNOW  14  10  85 E12       30.18F WCI   0
PRESTON        LGT SNOW  12   9  87 E5        30.22F WCI   4
$$
ABBREVIATIONS USED IN REMARKS
   TC - TEMPERATURES IN CELSIUS
  WCI - WIND CHILL INDEX
   HX - HEAT INDEX
  VSB - VISIBILITY
$$




USA.gov is the U.S. government's official web portal to all federal, state and local government web resources and services.